Time,TemperatureF,DewpointF,PressureIn,WindDirection,WindDirectionDegrees,WindSpeedMPH,WindSpeedGustMPH,Humidity,HourlyPrecipIn,Conditions,Clouds,dailyrainin,SoftwareType,DateUTC
2013-03-17 00:09:00,26.6,18.1,30.07,NNW,344,5.0,11.0,70,0.00,,---,0.00,VWS V14.01,2013-03-17 05:09:00,
2013-03-17 00:39:00,26.1,17.3,30.08,NNW,329,5.0,14.0,69,0.00,,---,0.00,VWS V14.01,2013-03-17 05:39:00,
2013-03-17 01:09:00,25.6,17.2,30.08,NNW,340,4.0,11.0,70,0.00,,---,0.00,VWS V14.01,2013-03-17 06:09:00,
2013-03-17 01:39:00,24.8,14.4,30.09,NNW,342,3.0,11.0,64,0.00,,---,0.00,VWS V14.01,2013-03-17 06:39:00,
2013-03-17 02:09:00,23.8,14.1,30.10,North,5,5.0,11.0,66,0.00,,---,0.00,VWS V14.01,2013-03-17 07:09:00,
2013-03-17 02:39:00,23.3,14.0,30.10,North,360,0.0,11.0,67,0.00,,---,0.00,VWS V14.01,2013-03-17 07:39:00,
2013-03-17 03:09:00,22.5,14.2,30.10,North,355,0.0,6.0,70,0.00,,---,0.00,VWS V14.01,2013-03-17 08:09:00,
2013-03-17 03:39:00,22.0,13.4,30.10,NE,54,3.0,9.0,69,0.00,,---,0.00,VWS V14.01,2013-03-17 08:39:00,
2013-03-17 04:09:00,21.3,12.7,30.10,North,355,2.0,5.0,69,0.00,,---,0.00,VWS V14.01,2013-03-17 09:09:00,
2013-03-17 04:39:00,20.6,12.4,30.10,NNE,29,0.0,6.0,70,0.00,,---,0.00,VWS V14.01,2013-03-17 09:39:00,
2013-03-17 05:09:00,20.0,11.8,30.10,NE,49,0.0,7.0,70,0.00,,---,0.00,VWS V14.01,2013-03-17 10:09:00,
2013-03-17 05:39:00,19.6,11.4,30.11,West,263,0.0,6.0,70,0.00,,---,0.00,VWS V14.01,2013-03-17 10:39:00,
2013-03-17 06:09:00,19.3,10.8,30.14,NE,36,0.0,4.0,69,0.00,,---,0.00,VWS V14.01,2013-03-17 11:09:00,
2013-03-17 06:39:00,18.8,10.6,30.14,SSW,196,0.0,4.0,70,0.00,,---,0.00,VWS V14.01,2013-03-17 11:39:00,
2013-03-17 07:09:00,18.5,11.0,30.16,WNW,300,0.0,5.0,72,0.00,,---,0.00,VWS V14.01,2013-03-17 12:09:00,
2013-03-17 07:39:00,18.8,11.6,30.17,North,360,0.0,1.0,73,0.00,,---,0.00,VWS V14.01,2013-03-17 12:39:00,
2013-03-17 08:09:00,19.7,13.1,30.17,SSW,210,0.0,2.0,75,0.00,,---,0.00,VWS V14.01,2013-03-17 13:09:00,
2013-03-17 08:39:00,21.4,14.7,30.18,NNW,346,2.0,4.0,75,0.00,,---,0.00,VWS V14.01,2013-03-17 13:39:00,
2013-03-17 09:09:00,23.0,15.6,30.18,East,82,0.0,4.0,73,0.00,,---,0.00,VWS V14.01,2013-03-17 14:09:00,
2013-03-17 09:39:00,23.4,15.7,30.18,East,88,0.0,4.0,72,0.00,,---,0.00,VWS V14.01,2013-03-17 14:39:00,
2013-03-17 10:09:00,25.6,17.2,30.18,SSW,192,0.0,3.0,70,0.00,,---,0.00,VWS V14.01,2013-03-17 15:09:00,
2013-03-17 10:39:00,28.1,17.9,30.18,SSE,153,0.0,10.0,65,0.00,,---,0.00,VWS V14.01,2013-03-17 15:39:00,
2013-03-17 11:09:00,28.5,17.9,30.18,South,173,3.0,9.0,64,0.00,,---,0.00,VWS V14.01,2013-03-17 16:09:00,
2013-03-17 11:39:00,27.9,19.1,30.18,SW,223,3.0,11.0,69,0.00,,---,0.00,VWS V14.01,2013-03-17 16:39:00,
2013-03-17 12:09:00,27.6,18.1,30.18,NE,53,0.0,11.0,67,0.00,,---,0.00,VWS V14.01,2013-03-17 17:09:00,
2013-03-17 12:39:00,28.1,17.5,30.18,WNW,300,1.0,11.0,64,0.00,,---,0.00,VWS V14.01,2013-03-17 17:39:00,
2013-03-17 13:09:00,28.3,17.0,30.17,ESE,121,1.0,14.0,62,0.00,,---,0.00,VWS V14.01,2013-03-17 18:09:00,
2013-03-17 13:39:00,30.4,16.6,30.16,ESE,105,1.0,14.0,56,0.00,,---,0.00,VWS V14.01,2013-03-17 18:39:00,
2013-03-17 14:09:00,28.9,17.2,30.14,North,351,1.0,14.0,61,0.00,,---,0.00,VWS V14.01,2013-03-17 19:09:00,
2013-03-17 14:39:00,29.7,17.5,30.12,North,9,3.0,13.0,60,0.00,,---,0.00,VWS V14.01,2013-03-17 19:39:00,
2013-03-17 15:09:00,29.3,17.5,30.12,SE,132,5.0,13.0,61,0.00,,---,0.00,VWS V14.01,2013-03-17 20:09:00,
2013-03-17 15:39:00,29.4,18.0,30.11,ENE,61,2.0,15.0,62,0.00,,---,0.00,VWS V14.01,2013-03-17 20:39:00,
2013-03-17 16:09:00,27.7,17.1,30.12,ESE,121,7.0,15.0,64,0.00,,---,0.00,VWS V14.01,2013-03-17 21:09:00,
2013-03-17 16:39:00,27.4,17.9,30.11,ESE,119,0.0,15.0,67,0.00,,---,0.00,VWS V14.01,2013-03-17 21:39:00,
2013-03-17 17:09:00,27.2,18.0,30.10,SE,126,3.0,15.0,68,0.00,,---,0.00,VWS V14.01,2013-03-17 22:09:00,
2013-03-17 17:39:00,27.5,18.0,30.08,ESE,107,3.0,10.0,67,0.00,,---,0.00,VWS V14.01,2013-03-17 22:39:00,
2013-03-17 18:09:00,27.9,18.4,30.08,SE,134,1.0,9.0,67,0.00,,---,0.00,VWS V14.01,2013-03-17 23:09:00,
2013-03-17 18:39:00,27.4,18.2,30.08,SE,131,0.0,11.0,68,0.00,,---,0.00,VWS V14.01,2013-03-17 23:39:00,
2013-03-17 19:09:00,26.5,18.0,30.07,SE,137,1.0,10.0,70,0.00,,---,0.00,VWS V14.01,2013-03-18 00:09:00,
2013-03-17 19:39:00,26.4,18.6,30.07,East,97,5.0,9.0,72,0.00,,---,0.00,VWS V14.01,2013-03-18 00:39:00,
2013-03-17 20:09:00,26.5,19.4,30.06,SE,127,0.0,11.0,74,0.00,,---,0.00,VWS V14.01,2013-03-18 01:09:00,
2013-03-17 20:39:00,26.7,20.2,30.05,ESE,122,0.0,9.0,76,0.00,,---,0.00,VWS V14.01,2013-03-18 01:39:00,
2013-03-17 21:09:00,26.3,20.4,30.04,SE,141,0.0,9.0,78,0.00,,---,0.00,VWS V14.01,2013-03-18 02:09:00,
2013-03-17 21:39:00,27.2,20.6,30.02,ESE,117,4.0,10.0,76,0.00,,---,0.00,VWS V14.01,2013-03-18 02:39:00,
2013-03-17 22:09:00,27.4,21.5,30.01,SE,135,2.0,10.0,78,0.00,,---,0.00,VWS V14.01,2013-03-18 03:09:00,
2013-03-17 22:39:00,27.8,21.9,30.00,SE,138,2.0,14.0,78,0.00,,---,0.00,VWS V14.01,2013-03-18 03:39:00,
2013-03-17 23:09:00,27.8,22.1,29.98,ESE,117,2.0,14.0,79,0.00,,---,0.00,VWS V14.01,2013-03-18 04:09:00,
2013-03-17 23:39:00,28.2,21.9,29.97,SSE,149,4.0,15.0,77,0.00,,---,0.00,VWS V14.01,2013-03-18 04:39:00,